Location: Unspecified
(35.0101°N, 0.0000°E)
Time: 00:19:06
(UTC+00:00)

IRIDIUM 163 - Visible Passes

Search period start: 05 April 2026 00:00
Search period end: 15 April 2026 00:00
Orbit: 776 x 779 km, 86.4° (Epoch: 29 March)

Date Brightness Start Highest point End Pass type
(mag) Time Alt. Az. Time Alt. Az. Time Alt. Az.
5 Apr ? 04:32:40 10° N 04:37:54 77° E 04:43:06 10° S visible
6 Apr ? 03:59:26 10° NNE 04:04:19 39° E 04:09:11 10° SSE visible
7 Apr ? 03:26:44 10° NNE 03:30:37 21° E 03:34:28 10° SE visible
7 Apr ? 05:06:38 10° NNW 05:11:23 37° W 05:16:08 10° SSW visible
8 Apr ? 02:55:49 10° ENE 02:56:46 10° ENE 02:57:42 10° E visible
8 Apr ? 04:32:47 10° N 04:37:59 72° W 04:43:10 10° S visible
9 Apr ? 03:59:19 10° N 04:04:28 59° E 04:09:36 10° SSE visible
10 Apr ? 03:26:15 10° NNE 03:30:50 30° E 03:35:24 10° SE visible
10 Apr ? 05:07:10 10° NNW 05:11:21 25° W 05:15:32 10° SW visible
11 Apr ? 02:53:53 10° NE 02:57:05 16° ENE 03:00:15 10° ESE visible
11 Apr ? 04:33:01 10° NNW 04:38:02 48° W 04:43:00 10° SSW visible
12 Apr ? 03:59:21 10° N 04:04:35 88° E 04:09:48 10° S visible
13 Apr ? 03:26:01 10° NNE 03:31:01 45° E 03:36:00 10° SSE visible
14 Apr ? 02:53:10 10° NNE 02:57:20 24° E 03:01:30 10° SE visible
14 Apr ? 04:33:26 10° NNW 04:38:02 32° W 04:42:36 10° SSW visible
